Theta_e
320 328 336 332 334 333 337 336 335 338 337 336 335 337 338 343 345 350 340 339 338 330 323 332 336 333 333 336 335 335 336 335 334 331 330 329 329 329 329 329 329 328 328 327 326 328 328 326 324
317 325 330 332 336 336 335 333 335 334 335 335 335 336 338 345 341 340 340 339 335 327 330 333 335 332 333 333 334 334 331 330 331 330 329 328 328 329 327 328 328 328 327 327 326 327 327 324 322
319 323 329 335 335 335 336 332 333 334 333 336 336 334 337 344 340 340 340 338 329 328 334 335 335 333 332 333 334 332 329 330 331 330 329 329 327 326 327 327 327 328 328 327 327 326 323 322 322
320 325 327 333 336 330 330 329 333 333 335 335 334 336 338 339 339 340 339 337 327 328 335 333 335 334 333 333 334 332 328 329 331 329 329 327 328 327 328 327 327 327 327 326 325 320 317 317 317
320 323 332 334 333 331 329 325 333 334 334 336 335 337 340 339 340 339 338 335 326 330 337 335 335 334 334 333 333 331 327 327 328 328 328 328 328 328 328 327 325 324 324 322 318 316 316 316 316
322 326 333 336 334 331 329 325 326 331 331 332 334 335 342 339 340 337 337 332 325 335 337 335 335 334 334 334 332 330 326 328 329 328 327 326 325 327 327 327 326 326 323 320 320 320 320 320 319
322 326 332 333 333 333 330 325 326 328 330 332 331 333 342 339 338 335 335 328 325 336 337 336 335 334 333 332 331 328 326 327 328 328 327 327 325 323 323 322 322 322 323 322 323 322 322 321 321
322 325 329 331 334 335 332 325 326 327 329 329 329 331 342 339 338 334 331 327 326 334 336 337 335 334 332 331 330 325 328 327 325 326 327 326 325 324 323 322 321 321 322 323 322 322 321 321 320
323 328 330 330 333 333 325 327 326 324 326 327 329 330 339 338 338 333 329 327 328 330 337 335 333 334 331 330 330 328 326 328 325 325 323 323 323 326 325 324 324 325 321 320 321 321 320 320 321
323 328 330 328 330 331 326 326 325 325 325 326 329 339 338 338 338 332 327 325 329 328 332 333 332 332 332 332 331 329 327 328 327 327 328 325 328 329 328 327 326 323 320 319 319 320 321 322 325
323 323 325 327 329 329 328 326 324 324 325 324 327 339 336 337 337 337 329 325 327 328 330 334 335 336 334 332 331 331 330 329 330 329 330 330 329 329 328 327 325 326 323 325 323 325 326 326 327
325 325 321 323 328 329 329 327 325 324 327 325 323 336 334 336 336 337 335 327 326 327 329 332 332 333 336 335 332 331 330 332 330 330 330 330 329 329 329 329 328 327 327 326 326 326 326 326 326
320 322 319 320 326 326 325 327 326 325 327 326 329 334 334 334 336 336 338 332 327 326 328 329 331 333 331 335 333 332 331 331 330 329 330 330 330 329 329 328 328 328 327 327 327 327 327 327 327
321 321 321 319 324 325 326 327 326 325 325 327 331 333 334 335 335 336 338 336 331 328 327 328 329 330 330 328 331 331 331 330 330 329 329 330 330 329 329 329 329 329 328 328 327 327 327 328 328
320 323 321 318 321 324 325 328 326 324 325 328 329 331 333 335 336 336 338 338 334 332 330 329 328 328 328 329 328 329 329 330 329 329 328 328 329 329 329 329 329 329 329 328 328 328 329 329 328
321 320 325 321 319 321 323 327 326 325 326 327 329 330 332 332 336 337 338 338 337 336 335 332 330 328 327 328 328 329 329 329 328 328 329 329 329 328 328 328 329 329 330 329 329 329 329 328 328
322 324 320 322 320 321 320 322 325 323 326 326 328 330 332 331 332 336 337 338 338 337 337 336 334 331 328 329 331 331 331 331 331 331 330 330 330 329 329 329 329 330 330 331 330 329 328 328 327
322 324 322 321 319 320 319 319 317 320 323 325 326 329 331 331 331 334 336 337 338 338 337 336 335 333 332 333 334 335 334 334 333 333 333 332 332 331 330 330 330 331 331 331 330 329 328 327 327
319 321 323 321 317 320 319 318 316 315 318 322 325 328 330 331 330 333 334 335 336 336 335 336 336 336 336 335 336 335 334 334 334 334 335 335 334 333 333 332 331 331 331 331 330 329 328 327 327
318 320 321 318 316 320 319 320 319 318 316 316 321 325 329 330 329 330 333 334 335 335 335 335 336 336 336 337 337 335 334 334 334 335 335 335 335 334 334 333 332 332 331 331 330 329 328 327 328
318 319 318 316 315 315 315 318 318 318 319 317 318 317 317 322 324 323 324 328 329 329 328 331 333 333 334 335 336 336 335 334 334 334 334 335 335 334 334 333 333 333 332 330 330 328 327 325 326
321 315 315 316 317 315 311 315 315 316 317 317 317 316 316 317 317 316 318 319 318 317 317 321 326 330 330 331 332 333 333 332 332 332 332 333 332 332 332 332 332 332 332 331 329 328 327 327 328
318 316 316 316 316 313 312 310 312 309 310 307 307 309 308 307 307 305 310 314 314 314 314 313 314 317 321 326 328 329 330 330 329 329 329 330 330 329 330 331 331 330 329 329 328 326 326 328 326
314 315 316 316 317 319 314 313 313 310 308 307 306 306 308 308 307 306 308 309 312 312 313 313 313 312 311 312 313 315 317 318 318 317 317 318 320 324 327 327 327 328 328 327 326 325 326 326 325
315 315 322 322 321 322 310 312 312 310 307 306 306 306 306 308 309 309 309 309 310 310 311 312 312 311 311 312 311 311 312 312 313 314 314 316 318 320 322 321 322 323 324 323 323 323 322 323 323
315 315 319 325 323 318 309 313 314 309 306 306 306 306 306 309 309 310 310 310 310 309 309 309 310 309 310 311 311 311 312 313 313 313 313 315 318 319 319 318 320 318 319 320 321 321 321 321 319
313 315 315 317 313 316 314 312 311 307 307 307 307 307 307 309 309 310 310 310 309 309 308 308 308 308 308 309 310 310 311 312 312 313 313 314 314 315 315 315 316 317 317 316 316 316 315 314 314
313 311 314 314 315 318 313 313 313 308 307 308 308 307 308 308 308 309 309 309 308 307 307 306 306 306 305 305 305 305 306 308 310 311 312 312 312 312 312 312 312 312 311 310 310 310 309 308 307
312 313 313 314 315 318 314 308 307 306 308 308 307 307 307 308 308 308 309 309 308 306 305 305 305 304 304 304 303 303 303 304 305 307 308 309 309 309 309 308 308 307 306 305 305 304 304 304 302
312 312 313 314 315 313 313 312 307 307 307 308 307 307 307 307 308 308 309 308 307 306 305 305 304 304 304 304 303 303 303 302 303 303 303 304 305 305 305 304 304 302 302 301 301 300 301 301 301
Wind_Speed
8 5 4 2 3 4 9 15 10 8 3 4 3 5 2 13 2 5 18 15 30 24 28 25 22 19 19 18 18 16 14 12 11 11 11 11 12 12 12 11 11 11 10 10 9 9 10 11 11
7 5 6 3 4 8 8 12 12 6 6 5 10 2 2 6 8 8 12 21 27 26 27 26 23 21 20 16 16 14 12 11 11 11 12 12 12 11 10 10 10 10 9 9 7 7 8 8 9
7 7 3 4 7 12 2 9 8 12 9 8 5 3 3 5 9 17 16 28 26 26 24 23 25 21 21 18 16 14 12 10 11 12 12 11 9 8 6 8 9 8 8 7 6 6 5 5 5
6 5 4 5 12 15 14 3 16 9 5 8 8 8 6 8 13 12 26 27 27 25 23 22 22 23 21 18 16 12 11 10 12 11 11 9 9 7 4 7 6 7 6 6 5 4 4 4 5
8 4 7 9 14 18 2 6 10 8 7 6 4 7 5 6 14 24 26 26 27 26 23 23 24 21 20 18 15 12 10 10 10 10 9 8 10 9 8 6 4 5 4 3 2 3 3 4 5
4 4 7 12 16 16 6 8 5 9 9 9 5 7 5 13 17 23 25 25 24 25 22 25 23 21 19 17 13 10 10 9 9 10 8 6 8 9 8 6 5 3 3 0 1 2 3 4 5
8 7 11 14 15 5 4 8 6 7 8 7 1 3 5 8 19 23 24 24 23 22 21 23 23 21 19 16 14 12 10 8 8 10 9 7 5 6 7 6 5 3 3 3 3 5 6 6 7
4 5 13 15 13 6 5 7 6 6 6 5 2 2 6 10 21 22 23 23 23 22 21 22 21 21 19 16 13 12 10 10 9 10 10 9 8 7 6 7 6 5 6 6 6 6 7 8 9
2 5 12 16 16 8 12 7 1 5 7 2 4 7 14 26 20 23 23 22 23 21 23 21 19 17 16 14 14 13 12 10 8 8 9 9 7 6 5 6 6 8 8 8 8 8 9 10 11
5 5 11 14 14 7 9 8 9 3 6 5 9 15 22 21 18 19 19 19 22 22 21 23 22 18 17 16 12 13 13 12 10 10 8 9 5 10 6 7 8 9 10 9 9 9 10 10 6
2 5 8 18 4 10 7 7 9 7 8 8 12 13 13 18 18 16 19 21 22 22 21 21 22 18 19 17 15 12 11 10 11 9 10 7 7 11 12 14 11 8 7 8 6 8 9 9 9
5 8 15 7 5 4 6 5 7 8 3 5 12 20 12 14 13 18 18 23 23 23 22 20 22 19 20 16 15 14 15 15 14 14 14 14 13 11 10 9 8 9 9 9 8 10 10 11 12
4 6 16 3 2 2 6 5 5 6 6 7 16 18 15 14 16 18 19 23 24 24 24 23 20 21 23 19 16 16 17 16 15 14 15 16 15 13 12 12 11 11 10 10 11 10 10 11 11
10 5 14 13 6 4 4 4 5 6 9 8 12 13 14 14 19 19 18 20 24 23 23 23 24 22 19 23 18 18 17 15 16 15 16 16 16 15 14 13 13 12 12 12 12 11 11 11 11
1 8 7 12 6 4 6 4 6 9 9 9 8 10 12 14 21 21 20 18 22 22 22 23 24 23 21 19 19 18 17 17 16 18 18 17 17 19 15 14 14 13 12 12 12 12 12 12 12
3 2 7 12 9 3 4 6 11 7 7 8 10 9 9 10 19 22 21 20 19 19 20 21 22 23 22 21 20 20 19 17 18 18 17 19 19 17 18 17 16 13 12 12 12 11 11 13 15
5 5 6 4 4 4 7 3 7 7 7 8 9 9 8 9 12 21 24 22 23 23 22 21 22 21 22 21 18 18 18 18 18 16 17 16 17 19 19 18 16 14 13 13 12 12 12 13 16
4 9 4 3 2 4 6 5 5 4 2 6 7 8 9 8 9 19 22 23 22 24 22 21 21 21 20 19 19 17 17 17 17 17 18 18 17 18 18 19 19 16 15 15 14 14 14 15 16
8 8 6 1 5 4 7 6 6 8 5 4 5 4 8 7 10 15 16 17 17 19 20 21 21 21 21 21 20 18 19 17 18 18 18 19 18 18 19 20 19 18 17 17 15 14 13 13 16
8 9 2 2 2 3 6 5 5 3 5 6 5 4 6 5 6 9 14 15 15 14 15 16 17 19 19 18 20 18 15 16 19 18 19 19 19 19 20 20 21 18 18 17 16 15 13 13 16
5 5 7 4 2 1 4 5 5 6 3 6 2 4 5 5 8 7 7 8 8 10 10 14 12 15 14 17 14 14 14 12 10 13 13 14 16 17 18 20 19 18 18 18 16 15 13 14 14
3 5 11 13 7 2 2 1 4 2 5 1 3 4 4 3 3 4 6 8 10 8 9 9 11 12 14 14 15 13 15 14 13 13 12 11 9 12 16 17 18 19 19 17 16 14 13 13 16
3 6 7 11 7 5 1 3 3 4 5 7 7 7 7 7 6 7 7 3 9 9 6 6 7 9 12 15 14 12 10 10 8 9 5 8 11 10 11 10 13 15 15 14 12 11 11 12 12
7 5 5 4 5 3 4 0 4 3 1 2 4 5 5 5 6 6 7 7 7 5 5 6 6 6 6 7 7 8 8 7 6 5 6 7 7 8 11 14 12 12 12 11 11 10 9 8 8
4 4 1 1 1 2 4 4 5 6 5 3 5 5 5 4 3 3 2 1 3 2 4 5 6 4 4 5 5 5 5 5 4 5 5 3 3 5 7 6 6 8 9 10 10 10 8 6 5
6 4 3 2 2 3 3 4 1 6 7 6 6 6 4 4 3 4 5 5 5 5 5 6 7 5 5 5 5 4 5 4 3 2 3 3 4 4 6 5 6 3 4 6 7 8 7 6 4
2 3 1 4 3 1 3 4 6 8 7 6 7 7 7 5 4 5 5 4 4 4 5 6 7 7 6 6 6 5 5 5 5 5 4 2 2 2 1 1 2 3 4 4 3 3 3 3 3
2 7 3 3 3 2 4 3 3 8 7 10 11 7 6 3 3 2 3 4 4 4 3 4 5 6 6 6 6 5 5 5 5 5 6 4 4 4 4 3 3 3 3 3 2 2 3 3 3
3 1 4 4 1 0 2 1 3 9 7 7 7 7 6 5 1 1 2 3 3 4 4 4 5 6 6 6 6 5 5 5 5 5 5 4 4 4 3 3 3 3 3 2 2 3 4 4 5
2 4 4 3 2 2 2 4 5 8 6 4 6 6 5 4 3 0 4 4 4 4 5 5 5 5 5 5 5 5 5 5 5 5 4 3 3 3 3 3 3 3 3 3 3 5 5 5 6
Wind_Direction
344 346 257 207 255 223 245 251 246 201 98 70 8 52 37 29 41 131 145 137 138 149 154 153 153 152 146 139 139 137 132 125 115 107 101 99 99 97 96 97 96 96 96 93 85 78 69 67 69
324 245 264 266 242 249 256 221 243 165 101 118 69 11 322 96 80 137 119 144 139 146 157 156 157 154 149 154 142 141 137 126 118 114 109 107 104 99 101 102 102 100 97 99 93 82 74 67 61
316 240 278 207 241 248 193 299 184 92 116 128 127 5 14 82 111 144 148 143 139 148 150 162 159 156 157 156 152 146 137 131 124 120 118 117 113 107 118 98 110 107 104 100 95 86 74 63 53
266 202 257 253 261 238 257 210 107 113 132 146 136 119 73 21 136 142 146 145 142 147 157 161 164 162 161 161 153 148 142 141 137 135 133 134 120 132 136 101 109 114 108 101 92 71 56 41 25
225 263 240 234 244 265 48 48 130 141 151 188 180 144 94 71 119 136 152 145 145 148 160 160 159 163 161 159 157 157 150 149 149 148 140 145 142 127 132 133 102 99 93 97 79 48 26 11 357
251 222 245 231 247 241 142 139 260 160 173 166 167 125 90 127 131 147 149 146 149 148 154 162 163 165 163 159 161 165 159 158 153 156 157 164 164 165 170 170 171 201 265 224 309 337 341 334 329
235 252 244 246 253 266 125 128 218 196 157 141 25 197 111 163 146 153 151 150 152 146 153 161 163 164 165 165 170 176 165 163 167 172 176 189 192 184 197 205 215 222 229 263 288 300 306 313 315
239 246 260 253 261 231 291 147 192 227 146 82 147 113 159 150 152 154 155 150 153 150 156 162 166 166 169 175 180 174 170 172 188 187 192 199 207 216 222 225 230 243 251 259 273 286 293 296 300
292 235 236 244 252 258 149 158 332 19 113 102 90 59 109 142 159 159 155 155 151 158 160 162 174 171 176 183 183 178 176 178 187 185 199 206 214 220 242 246 245 251 264 265 273 282 288 296 308
200 215 235 245 248 252 158 179 156 151 156 149 96 98 117 140 167 165 160 161 154 165 165 164 174 177 180 186 197 190 190 195 199 207 210 219 196 232 223 235 257 268 265 271 280 292 293 299 318
236 226 256 261 354 12 162 190 155 196 194 180 162 143 140 149 171 180 167 171 165 173 171 173 176 178 186 189 197 199 201 210 214 217 219 223 215 228 239 247 256 276 275 276 284 292 300 307 298
165 269 276 305 31 4 336 192 161 191 95 204 160 149 150 162 171 182 181 172 172 176 178 178 184 191 177 183 191 194 204 211 210 217 219 220 227 232 238 251 253 263 266 276 273 268 273 274 281
172 184 308 270 344 297 29 320 186 208 99 67 109 137 151 171 171 189 197 176 177 178 184 188 189 195 196 180 196 201 208 211 215 218 223 225 229 230 235 242 243 250 258 262 268 271 272 276 285
192 206 257 283 234 166 191 206 54 247 132 113 132 145 156 170 179 184 213 180 179 182 185 185 190 195 200 201 191 207 210 216 220 219 224 226 226 233 237 240 243 249 252 257 262 267 269 273 281
80 180 283 292 243 205 214 163 213 272 140 143 169 156 161 169 177 187 201 190 179 189 189 190 192 195 197 203 202 208 213 216 219 227 226 232 231 230 230 239 243 245 252 254 256 261 271 278 284
217 296 185 282 217 199 251 208 208 172 140 177 176 167 154 174 175 184 203 191 186 191 195 194 196 198 200 205 207 213 218 222 227 228 231 229 236 237 235 238 242 246 246 248 255 264 273 281 288
179 204 207 144 216 173 212 204 95 127 165 211 177 157 159 168 174 180 195 194 192 192 193 195 196 198 204 207 213 220 224 226 231 233 235 237 236 236 236 237 242 243 244 246 252 261 269 280 289
341 249 180 237 354 291 211 244 121 132 188 231 202 159 156 169 178 183 193 188 189 188 192 194 198 202 208 212 216 219 225 234 237 235 236 238 237 239 238 237 240 240 243 250 253 259 270 275 285
334 323 306 54 318 302 241 247 208 161 154 289 261 188 153 176 172 180 182 177 184 185 190 191 195 200 202 205 211 222 229 234 238 238 237 237 239 238 239 239 242 243 243 248 249 258 264 272 279
360 353 3 183 301 286 339 246 278 206 177 180 251 213 171 151 151 144 171 182 193 192 196 204 201 202 207 210 213 220 234 243 244 249 249 245 242 243 240 243 245 240 246 246 247 254 260 271 277
67 46 312 339 265 179 292 265 212 238 235 157 227 336 11 151 165 154 163 198 191 207 211 210 210 208 205 209 212 209 211 225 230 230 237 236 241 244 246 245 243 245 246 249 249 251 249 261 269
104 13 356 359 341 71 287 268 72 187 140 180 218 199 264 322 69 80 153 172 181 180 196 203 209 197 201 202 204 211 220 233 250 260 256 248 257 251 244 245 247 250 248 250 248 247 253 257 259
103 300 4 345 344 360 71 54 289 10 75 41 37 46 27 21 23 1 14 79 144 157 176 181 195 208 217 217 215 218 230 238 250 249 248 249 246 254 252 254 253 253 255 251 245 252 256 263 255
189 176 98 21 352 357 284 172 340 66 18 50 66 75 63 37 6 14 26 52 101 129 157 176 182 186 184 178 196 206 215 225 249 264 268 266 252 243 245 241 254 250 248 244 243 249 252 251 243
256 139 61 80 97 228 9 21 280 72 49 29 345 352 30 75 66 54 71 102 116 158 180 188 181 178 170 179 192 196 209 226 243 246 241 239 241 243 243 245 239 238 241 243 244 250 251 241 226
218 167 139 73 47 347 305 218 239 88 65 32 12 339 343 95 94 93 69 88 129 155 169 173 169 164 160 161 152 148 144 147 153 177 195 195 209 210 236 230 214 214 224 229 221 221 227 217 213
165 106 104 117 126 20 238 234 310 96 67 48 35 9 15 49 66 82 78 85 122 144 135 147 151 149 148 144 142 133 124 124 106 93 113 143 195 183 170 180 171 173 190 187 213 211 205 189 210
15 163 90 5 128 215 254 199 215 66 36 34 22 21 12 53 42 106 139 139 126 125 141 154 155 160 154 148 140 126 115 108 103 98 96 97 94 109 119 123 123 125 137 153 182 172 146 173 155
155 200 50 114 99 232 5 93 16 85 70 42 18 11 8 10 29 222 187 156 166 161 166 182 184 172 162 157 141 131 117 108 101 96 93 93 101 107 118 111 114 114 102 107 125 115 131 134 129
0 350 153 158 190 260 82 292 101 119 128 89 36 11 353 343 314 294 173 169 185 203 206 207 200 193 184 165 149 134 119 114 112 101 98 98 96 97 96 100 101 99 98 100 105 113 117 121 120